Volver al catálogo

THORAD DELTA 1 DEB

ActivoSSO
NORAD 8563·DEBRIS·🇺🇸 United States

Lanzado Nov 15, 1974 desde Vandenberg Space Force Base

Loading…

Próximos Pases (próximas 24 horas)

TLE

ActualizadoSource: Space-Track

Época: Sep 14, 2026, 05:00 UTC

1 08563U 74089DA  26257.20871994  .00000058  00000-0  62534-3 0  9998
2 08563 101.4087 348.4977 0078766  17.3196  11.1030 12.53644965367252

Sigue THORAD DELTA 1 DEB en tiempo real con AllMySat

Download on the App Store